Regional Weather Roundup
Issued by NWS

Home | Current Version | Previous Version | Graphics & Text | Print | Product List | Glossary On
Versions: 1 2 3 4 5 6 7 8 9 10 11 12 13 14 15 16 17 18 19 20 21 22 23 24 25 26 27 28 29 30 31 32 33 34 35 36 37 38 39 40 41 42 43 44 45 46 47 48 49 50
000
ASUS43 KMKX 222211
RWRWI

WISCONSIN REGIONAL WEATHER ROUNDUP
NATIONAL WEATHER SERVICE MILWAUKEE/SULLIVAN WI
500 PM CDT TUE AUG 22 2017

NOTE: "FAIR" INDICATES FEW OR NO CLOUDS BELOW 12,000 FEET WITH NO
SIGNIFICANT WEATHER AND/OR OBSTRUCTIONS TO VISIBILITY.

WIZ001-002-006>008-014>016-023>028-222300-
NORTHWEST WISCONSIN

CITY           SKY/WX    TMP DP  RH WIND       PRES   REMARKS
SUPERIOR ARPT    N/A     68  53  58 NW14      29.96R
ASHLAND        CLOUDY    67  52  58 W13G20    29.93R
HAYWARD        CLOUDY    68  49  50 W8G20     29.97R
SIREN          PTSUNNY   70  46  42 NW13      30.00S
CUMBERLAND     PTSUNNY   68  45  42 NW15G25   30.00S
RICE LAKE      MOSUNNY   71  48  44 W20G26    30.01S
CHETEK         MOSUNNY   71  48  44 NW13G25   29.99R
LADYSMITH      PTSUNNY   68  46  46 NW18G30   29.99R
EAU CLAIRE     MOSUNNY   72  46  39 NW13      29.98R
MENOMONIE      SUNNY     71  47  41 W15G25    30.00S
NEW RICHMOND   MOSUNNY   71  46  40 NW13G21   30.02S
OSCEOLA        MOSUNNY   73  46  38 NW9       30.04S
$$

WIZ003>005-009-010-017-018-222300-
NORTH CENTRAL WISCONSIN

CITY           SKY/WX    TMP DP  RH WIND       PRES   REMARKS
MANITOWISH WTR CLOUDY    66  49  54 NW18G26   29.92S
ARBOR VITAE    PTSUNNY   65  50  57 NW15G23   29.92S
WOODRUFF       PTSUNNY   65  50  57 NW15G23   29.92S
RHINELANDER    LGT RAIN  64  50  60 W16G22    29.93S
EAGLE RIVER    CLOUDY    63  51  66 NW7       29.91S
LAND O LAKES   PTSUNNY   64  49  58 W8        29.92R
PHILLIPS       CLOUDY    65  49  55 NW9G24    29.95R
TOMAHAWK         N/A     64  49  59 NW9       29.94S
MEDFORD        CLOUDY    67  47  47 W15G26    29.96R
MERRILL        NOT AVBL
$$

WIZ029-030-035-036-043>047-222300-
CENTRAL WISCONSIN

CITY           SKY/WX    TMP DP  RH WIND       PRES   REMARKS
WAUSAU         MOSUNNY   71  46  40 NW18G29   29.92S
MOSINEE        MOSUNNY   70  48  46 W17G29    29.94S
MARSHFIELD     MOSUNNY   71  49  45 NW16G23   29.95S
STEVENS POINT  MOSUNNY   70  46  42 NW13G22   29.94S
WAUPACA        MOSUNNY   76  46  34 W14       29.93S
WAUTOMA        MOSUNNY   74  48  39 NW18G26   29.95R
WISC RAPIDS    MOSUNNY   74  50  42 NW16G25   29.96F
CAMP DOUGLAS   MOSUNNY   73  52  46 W20G25    29.97S
$$

WIZ011>013-019>022-031-037>040-048>050-222300-
NORTHEAST WISCONSIN

CITY           SKY/WX    TMP DP  RH WIND       PRES   REMARKS
ANTIGO         PTSUNNY   65  49  56 NW12G20   29.93R
SHAWANO        PTSUNNY   73  47  40 NW9G20    29.89S
OCONTO         PTSUNNY   71  48  44 NW9       29.86S
STURGEON BAY   PTSUNNY   71  50  47 NW16G24   29.87R
GREEN BAY      MOSUNNY   73  51  46 NW16G23   29.89S
MANITOWOC      MOSUNNY   73  48  41 NW17      29.89S
APPLETON       PTSUNNY   73  43  33 NW15G25   29.91R
CLINTONVILLE   PTSUNNY   72  43  35 NW14      29.90S
OSHKOSH        MOSUNNY   73  51  46 NW13      29.92R
$$

WIZ032>034-041-042-053>061-222300-
SOUTHWEST WISCONSIN

CITY           SKY/WX    TMP DP  RH WIND       PRES   REMARKS
LA CROSSE      SUNNY     78  48  34 NW14      29.99F
SPARTA         MOSUNNY   73  48  40 NW16      29.99F
VIROQUA        MOSUNNY   71  50  47 NW17      30.02S
BOSCOBEL       MOSUNNY   74  50  42 NW9       30.01R
PRAIRIE DU CHI SUNNY     74  45  34 NW14      30.01S
PLATTEVILLE    MOSUNNY   73  52  46 NW10      30.02R
$$

WIZ056-057-062-063-064-067-068-222300-
SOUTH CENTRAL WISCONSIN

CITY           SKY/WX    TMP DP  RH WIND       PRES   REMARKS
REEDSBURG      MOSUNNY   72  48  43 NW10G21   29.98S
BARABOO/DELLS  PTSUNNY   73  45  35 NW15G22   29.98S
LONE ROCK      MOSUNNY   74  51  44 NW16      29.99R
MINERAL POINT  MOSUNNY   73  48  40 NW10G18   30.01R
MADISON        MOSUNNY   74  50  42 NW14G21   29.96R
MIDDLETON      MOSUNNY   75  51  42 NW12      29.98S
WATERTOWN      MOSUNNY   74  50  43 NW13G20   29.95R
MONROE         MOSUNNY   73  46  38 NW14G24   29.98S
JANESVILLE     PTSUNNY   77  48  36 NW15G21   29.95R
$$

WIZ051-052-058>065-066-070>072-222300-
SOUTHEAST WISCONSIN

CITY           SKY/WX    TMP DP  RH WIND       PRES   REMARKS
MILWAUKEE      PTSUNNY   77  49  37 N17       29.92R
WAUKESHA       MOSUNNY   70  48  46 NW15G21   29.95R
MILWAUKEE/TIMM MOSUNNY   73  43  33 NW18G30   29.93R
RACINE         MOSUNNY   77  51  40 NW13      29.93R
KENOSHA        SUNNY     77  50  38 NW13G24   29.93R
FOND DU LAC    MOSUNNY   72  49  44 NW13      29.93R
SHEBOYGAN      PTSUNNY   71  51  49 NW12G23   29.91R
WEST BEND      MOSUNNY   70  46  43 NW15      29.93R
JUNEAU         PTSUNNY   72  51  46 W7        29.95S
$$

LSZ147-162-222300-
LAKE SUPERIOR

STATION/POSITION TIME  TEMP    WIND        PRES    WAVE
                       AIR SEA DIR/SP/G            HT/PER
                 (UTC) (F)     (DEG/KT/KT) (MB)    (FT/S)
W MID LAKE BUOY  2150   62 60  280/ 19/ 23 1010.3R   3/ 5
DEVILS ISLAND    2200   60     290/  9/ 10 1012.6R
PORT WING        2137   72     270/ 19/ 26 1013.5
SAXON HARBOR     2140   68     260/  6/ 10 1012.5R
$$

LMZ867-665-643>646-222300-
LAKE MICHIGAN

STATION/POSITION TIME  TEMP    WIND        PRES    WAVE
                       AIR SEA DIR/SP/G            HT/PER
                 (UTC) (F)     (DEG/KT/KT) (MB)    (FT/S)
S GREEN BAY BUOY 2200   72 71  290/ 16/ 19 1011.2
N MID LAKE BUOY  2150   69 67  280/ 17/ 21 1009.9R   3/ 5
NORTHPORT PIER   2140   71     300/ 12/ 18 1010.2S
KEWAUNEE LAKESHO 2148   73     310/ 11/ 20 1010.7R
SHEBOYGAN LAKESH 2200   73     290/ 16/ 21 1012.1R
PORT WASHINGTON  2130   76     300/  9/ 21 1013.2R
ATWATER BUOY     2109   73 68  310/ 17/ 23 1012.8R
MILWAUKEE LAKESH 2150   75     300/  7/  9   N/A
S MID LAKE BUOY  2150   72 72  350/ 14/ 16 1012.3R   3/ 5
KENOSHA   LAKESH 2200   75     310/ 14/ 21 1012.9
$$

TC  - TEMPERATURE IN CELSIUS
VSB - VISIBILITY IN STATUTE MILES
WCI - WIND CHILL INDEX
HX  - HEAT INDEX




USA.gov is the U.S. government's official web portal to all federal, state and local government web resources and services.